owner,sensor,date,latitude,longitude,vertical_datum,wind_speed,wind_to_direction,wind_speed_of_gust,qcFlag 
TCOON,ioos:station:TCOON:524:1,2015-03-01T00:00:00Z,29.8672,-93.9310,0.0,2.3,66.0,3.1,'11111222,11111222,11111222' 
TCOON,ioos:station:TCOON:524:1,2015-03-01T00:06:00Z,29.8672,-93.9310,0.0,2.3,67.0,3.6,'11111222,11111222,11111222' 
TCOON,ioos:station:TCOON:524:1,2015-03-01T00:12:00Z,29.8672,-93.9310,0.0,2.3,67.0,3.6,'1111122,1111122,1111122' 
TCOON,ioos:station:TCOON:524:1,2015-03-01T00:18:00Z,29.8672,-93.9310,0.0,2.1,74.0,3.4,'11111222,11111222,11111222' 
TCOON,ioos:station:TCOON:524:1,2015-03-01T00:24:00Z,29.8672,-93.9310,0.0,2.8,69.0,3.9,'11111222,11111222,11111222' 
TCOON,ioos:station:TCOON:524:1,2015-03-01T00:30:00Z,29.8672,-93.9310,0.0,3.0,67.0,3.9,'11111222,11111222,11111222' 
TCOON,ioos:station:TCOON:524:1,2015-03-01T00:36:00Z,29.8672,-93.9310,0.0,2.6,64.0,4.3,'11111222,11111222,11111222' 
TCOON,ioos:station:TCOON:524:1,2015-03-01T00:42:00Z,29.8672,-93.9310,0.0,2.7,64.0,4.2,'11111222,11111222,11111222' 
TCOON,ioos:station:TCOON:524:1,2015-03-01T00:48:00Z,29.8672,-93.9310,0.0,2.2,60.0,4.0,'11111222,11111222,11111222' 
TCOON,ioos:station:TCOON:524:1,2015-03-01T00:54:00Z,29.8672,-93.9310,0.0,2.8,66.0,4.5,'11111222,11111222,11111222' 
TCOON,ioos:station:TCOON:524:1,2015-03-01T01:00:00Z,29.8672,-93.9310,0.0,2.5,64.0,4.3,'11111222,11111222,11111222' 
TCOON,ioos:station:TCOON:524:1,2015-03-01T01:06:00Z,29.8672,-93.9310,0.0,3.0,69.0,4.5,'11111222,11111222,11111222' 
TCOON,ioos:station:TCOON:524:1,2015-03-01T01:12:00Z,29.8672,-93.9310,0.0,3.0,69.0,4.5,'1111122,1111122,1111122' 
TCOON,ioos:station:TCOON:524:1,2015-03-01T01:18:00Z,29.8672,-93.9310,0.0,2.8,68.0,4.6,'11111222,11111222,11111222' 
TCOON,ioos:station:TCOON:524:1,2015-03-01T01:24:00Z,29.8672,-93.9310,0.0,3.4,68.0,4.6,'11111222,11111222,11111222' 
TCOON,ioos:station:TCOON:524:1,2015-03-01T01:30:00Z,29.8672,-93.9310,0.0,2.2,62.0,4.7,'11111222,11111222,11111222' 
TCOON,ioos:station:TCOON:524:1,2015-03-01T01:36:00Z,29.8672,-93.9310,0.0,3.0,63.0,4.8,'11111222,11111222,11111222' 
TCOON,ioos:station:TCOON:524:1,2015-03-01T01:42:00Z,29.8672,-93.9310,0.0,3.1,69.0,4.3,'11111222,11111222,11111222' 
TCOON,ioos:station:TCOON:524:1,2015-03-01T01:48:00Z,29.8672,-93.9310,0.0,3.1,73.0,6.1,'11111222,11111222,11111222' 
TCOON,ioos:station:TCOON:524:1,2015-03-01T01:54:00Z,29.8672,-93.9310,0.0,4.2,67.0,5.7,'11111222,11111222,11111222' 
TCOON,ioos:station:TCOON:524:1,2015-03-01T02:00:00Z,29.8672,-93.9310,0.0,3.2,74.0,6.0,'11111222,11111222,11111222' 
TCOON,ioos:station:TCOON:524:1,2015-03-01T02:06:00Z,29.8672,-93.9310,0.0,3.2,66.0,4.9,'11111222,11111222,11111222' 
TCOON,ioos:station:TCOON:524:1,2015-03-01T02:12:00Z,29.8672,-93.9310,0.0,3.2,66.0,4.9,'1111122,1111122,1111122' 
TCOON,ioos:station:TCOON:524:1,2015-03-01T02:18:00Z,29.8672,-93.9310,0.0,3.2,64.0,5.7,'11111222,11111222,11111222' 
TCOON,ioos:station:TCOON:524:1,2015-03-01T02:24:00Z,29.8672,-93.9310,0.0,2.6,63.0,5.6,'11111222,11111222,11111222' 
TCOON,ioos:station:TCOON:524:1,2015-03-01T02:30:00Z,29.8672,-93.9310,0.0,2.8,68.0,3.9,'11111222,11111222,11111222' 
TCOON,ioos:station:TCOON:524:1,2015-03-01T02:36:00Z,29.8672,-93.9310,0.0,3.1,65.0,4.3,'11111222,11111222,11111222' 
TCOON,ioos:station:TCOON:524:1,2015-03-01T02:42:00Z,29.8672,-93.9310,0.0,3.3,66.0,5.0,'11111222,11111222,11111222' 
TCOON,ioos:station:TCOON:524:1,2015-03-01T02:48:00Z,29.8672,-93.9310,0.0,2.6,74.0,4.6,'11111222,11111222,11111222' 
TCOON,ioos:station:TCOON:524:1,2015-03-01T02:54:00Z,29.8672,-93.9310,0.0,2.6,68.0,3.6,'11111222,11111222,11111222' 
TCOON,ioos:station:TCOON:524:1,2015-03-01T03:00:00Z,29.8672,-93.9310,0.0,2.2,61.0,4.4,'11111222,11111222,11111222' 
TCOON,ioos:station:TCOON:524:1,2015-03-01T03:06:00Z,29.8672,-93.9310,0.0,3.1,66.0,4.5,'11111222,11111222,11111222' 
TCOON,ioos:station:TCOON:524:1,2015-03-01T03:12:00Z,29.8672,-93.9310,0.0,2.9,63.0,5.2,'11111222,11111222,11111222' 
TCOON,ioos:station:TCOON:524:1,2015-03-01T03:18:00Z,29.8672,-93.9310,0.0,2.9,63.0,5.2,'1111122,1111122,1111122' 
TCOON,ioos:station:TCOON:524:1,2015-03-01T03:24:00Z,29.8672,-93.9310,0.0,1.8,53.0,3.3,'11111222,11111222,11111222' 
TCOON,ioos:station:TCOON:524:1,2015-03-01T03:30:00Z,29.8672,-93.9310,0.0,2.1,60.0,3.1,'11111222,11111222,11111222' 
TCOON,ioos:station:TCOON:524:1,2015-03-01T03:36:00Z,29.8672,-93.9310,0.0,2.4,64.0,4.0,'11111222,11111222,11111222' 
TCOON,ioos:station:TCOON:524:1,2015-03-01T03:42:00Z,29.8672,-93.9310,0.0,2.6,62.0,4.2,'11111222,11111222,11111222' 
TCOON,ioos:station:TCOON:524:1,2015-03-01T04:00:00Z,29.8672,-93.9310,0.0,2.9,69.0,4.4,'11111222,11111222,11111222' 
TCOON,ioos:station:TCOON:524:1,2015-03-01T04:06:00Z,29.8672,-93.9310,0.0,3.1,66.0,4.9,'11111222,11111222,11111222' 
TCOON,ioos:station:TCOON:524:1,2015-03-01T04:12:00Z,29.8672,-93.9310,0.0,3.1,66.0,4.9,'1111122,1111122,1111122' 
TCOON,ioos:station:TCOON:524:1,2015-03-01T04:18:00Z,29.8672,-93.9310,0.0,2.7,66.0,3.7,'11111222,11111222,11111222' 
TCOON,ioos:station:TCOON:524:1,2015-03-01T04:24:00Z,29.8672,-93.9310,0.0,2.6,71.0,5.1,'11111222,11111222,11111222' 
TCOON,ioos:station:TCOON:524:1,2015-03-01T04:30:00Z,29.8672,-93.9310,0.0,2.5,70.0,3.6,'11111222,11111222,11111222' 
TCOON,ioos:station:TCOON:524:1,2015-03-01T04:36:00Z,29.8672,-93.9310,0.0,2.2,78.0,3.1,'11111222,11111222,11111222' 
TCOON,ioos:station:TCOON:524:1,2015-03-01T04:42:00Z,29.8672,-93.9310,0.0,1.9,84.0,2.9,'11111222,11111222,11111222' 
TCOON,ioos:station:TCOON:524:1,2015-03-01T04:48:00Z,29.8672,-93.9310,0.0,2.1,92.0,3.0,'11111222,11111222,11111222' 
TCOON,ioos:station:TCOON:524:1,2015-03-01T04:54:00Z,29.8672,-93.9310,0.0,1.8,89.0,2.7,'11111222,11111222,11111222' 
TCOON,ioos:station:TCOON:524:1,2015-03-01T05:00:00Z,29.8672,-93.9310,0.0,1.9,98.0,2.6,'11111222,11111222,11111222' 
TCOON,ioos:station:TCOON:524:1,2015-03-01T05:06:00Z,29.8672,-93.9310,0.0,2.0,105.0,3.1,'11111222,11111222,11111222' 
TCOON,ioos:station:TCOON:524:1,2015-03-01T05:12:00Z,29.8672,-93.9310,0.0,2.8,105.0,4.5,'11111222,11111222,11111222' 
TCOON,ioos:station:TCOON:524:1,2015-03-01T05:18:00Z,29.8672,-93.9310,0.0,2.8,105.0,4.5,'1111122,1111122,1111122' 
TCOON,ioos:station:TCOON:524:1,2015-03-01T05:24:00Z,29.8672,-93.9310,0.0,3.5,95.0,5.2,'11111222,11111222,11111222' 
TCOON,ioos:station:TCOON:524:1,2015-03-01T05:30:00Z,29.8672,-93.9310,0.0,3.6,103.0,6.1,'11111222,11111222,11111222' 
TCOON,ioos:station:TCOON:524:1,2015-03-01T05:36:00Z,29.8672,-93.9310,0.0,3.9,102.0,5.6,'11111222,11111222,11111222' 
TCOON,ioos:station:TCOON:524:1,2015-03-01T05:42:00Z,29.8672,-93.9310,0.0,3.0,107.0,5.1,'11111222,11111222,11111222' 
TCOON,ioos:station:TCOON:524:1,2015-03-01T05:48:00Z,29.8672,-93.9310,0.0,3.6,108.0,5.5,'11111222,11111222,11111222' 
TCOON,ioos:station:TCOON:524:1,2015-03-01T05:54:00Z,29.8672,-93.9310,0.0,3.7,108.0,5.5,'11111222,11111222,11111222' 
TCOON,ioos:station:TCOON:524:1,2015-03-01T06:12:00Z,29.8672,-93.9310,0.0,2.8,112.0,4.7,'11111222,11111222,11111222' 
TCOON,ioos:station:TCOON:524:1,2015-03-01T06:18:00Z,29.8672,-93.9310,0.0,2.8,112.0,4.7,'1111122,1111122,1111122' 
TCOON,ioos:station:TCOON:524:1,2015-03-01T06:36:00Z,29.8672,-93.9310,0.0,2.5,106.0,4.4,'11111222,11111222,11111222' 
TCOON,ioos:station:TCOON:524:1,2015-03-01T06:42:00Z,29.8672,-93.9310,0.0,2.6,103.0,4.0,'11111222,11111222,11111222' 
TCOON,ioos:station:TCOON:524:1,2015-03-01T06:48:00Z,29.8672,-93.9310,0.0,2.9,113.0,4.5,'11111222,11111222,11111222' 
TCOON,ioos:station:TCOON:524:1,2015-03-01T06:54:00Z,29.8672,-93.9310,0.0,3.9,108.0,6.3,'11111222,11111222,11111222' 
TCOON,ioos:station:TCOON:524:1,2015-03-01T07:00:00Z,29.8672,-93.9310,0.0,3.5,103.0,5.7,'11111222,11111222,11111222' 
TCOON,ioos:station:TCOON:524:1,2015-03-01T07:06:00Z,29.8672,-93.9310,0.0,3.4,98.0,5.0,'11111222,11111222,11111222' 
TCOON,ioos:station:TCOON:524:1,2015-03-01T07:12:00Z,29.8672,-93.9310,0.0,2.8,108.0,4.6,'11111222,11111222,11111222' 
TCOON,ioos:station:TCOON:524:1,2015-03-01T07:18:00Z,29.8672,-93.9310,0.0,2.8,108.0,4.6,'1111122,1111122,1111122' 
TCOON,ioos:station:TCOON:524:1,2015-03-01T07:24:00Z,29.8672,-93.9310,0.0,2.7,110.0,4.4,'11111222,11111222,11111222' 
TCOON,ioos:station:TCOON:524:1,2015-03-01T07:30:00Z,29.8672,-93.9310,0.0,2.4,105.0,4.6,'11111222,11111222,11111222' 
TCOON,ioos:station:TCOON:524:1,2015-03-01T07:36:00Z,29.8672,-93.9310,0.0,3.4,101.0,4.9,'11111222,11111222,11111222' 
TCOON,ioos:station:TCOON:524:1,2015-03-01T07:42:00Z,29.8672,-93.9310,0.0,2.5,104.0,5.1,'11111222,11111222,11111222' 
TCOON,ioos:station:TCOON:524:1,2015-03-01T07:48:00Z,29.8672,-93.9310,0.0,2.5,101.0,4.1,'11111222,11111222,11111222' 
TCOON,ioos:station:TCOON:524:1,2015-03-01T07:54:00Z,29.8672,-93.9310,0.0,2.8,96.0,4.3,'11111222,11111222,11111222' 
TCOON,ioos:station:TCOON:524:1,2015-03-01T08:00:00Z,29.8672,-93.9310,0.0,1.4,95.0,2.4,'11111222,11111222,11111222' 
TCOON,ioos:station:TCOON:524:1,2015-03-01T08:06:00Z,29.8672,-93.9310,0.0,1.6,72.0,2.6,'11111222,11111222,11111222' 
TCOON,ioos:station:TCOON:524:1,2015-03-01T08:12:00Z,29.8672,-93.9310,0.0,1.5,83.0,1.9,'11111222,11111222,11111222' 
TCOON,ioos:station:TCOON:524:1,2015-03-01T08:18:00Z,29.8672,-93.9310,0.0,1.5,83.0,1.9,'1111122,1111122,1111122' 
TCOON,ioos:station:TCOON:524:1,2015-03-01T08:36:00Z,29.8672,-93.9310,0.0,1.7,87.0,2.3,'11111222,11111222,11111222' 
TCOON,ioos:station:TCOON:524:1,2015-03-01T08:42:00Z,29.8672,-93.9310,0.0,2.0,84.0,2.7,'11111222,11111222,11111222' 
TCOON,ioos:station:TCOON:524:1,2015-03-01T08:48:00Z,29.8672,-93.9310,0.0,2.0,84.0,2.9,'11111222,11111222,11111222' 
TCOON,ioos:station:TCOON:524:1,2015-03-01T08:54:00Z,29.8672,-93.9310,0.0,2.2,89.0,3.0,'11111222,11111222,11111222' 
TCOON,ioos:station:TCOON:524:1,2015-03-01T09:00:00Z,29.8672,-93.9310,0.0,2.2,82.0,3.1,'11111222,11111222,11111222' 
TCOON,ioos:station:TCOON:524:1,2015-03-01T09:06:00Z,29.8672,-93.9310,0.0,2.3,82.0,3.3,'11111222,11111222,11111222' 
TCOON,ioos:station:TCOON:524:1,2015-03-01T09:12:00Z,29.8672,-93.9310,0.0,2.1,80.0,3.7,'11111222,11111222,11111222' 
TCOON,ioos:station:TCOON:524:1,2015-03-01T09:18:00Z,29.8672,-93.9310,0.0,2.1,80.0,3.7,'1111122,1111122,1111122' 
TCOON,ioos:station:TCOON:524:1,2015-03-01T09:24:00Z,29.8672,-93.9310,0.0,2.4,84.0,3.5,'11111222,11111222,11111222' 
TCOON,ioos:station:TCOON:524:1,2015-03-01T09:30:00Z,29.8672,-93.9310,0.0,2.1,93.0,3.1,'11111222,11111222,11111222' 
TCOON,ioos:station:TCOON:524:1,2015-03-01T09:36:00Z,29.8672,-93.9310,0.0,2.6,83.0,3.5,'11111222,11111222,11111222' 
TCOON,ioos:station:TCOON:524:1,2015-03-01T09:42:00Z,29.8672,-93.9310,0.0,2.5,86.0,3.5,'11111222,11111222,11111222' 
TCOON,ioos:station:TCOON:524:1,2015-03-01T09:48:00Z,29.8672,-93.9310,0.0,2.3,89.0,3.4,'11111222,11111222,11111222' 
TCOON,ioos:station:TCOON:524:1,2015-03-01T09:54:00Z,29.8672,-93.9310,0.0,2.4,91.0,3.2,'11111222,11111222,11111222' 
TCOON,ioos:station:TCOON:524:1,2015-03-01T10:00:00Z,29.8672,-93.9310,0.0,2.5,92.0,3.4,'11111222,11111222,11111222' 
TCOON,ioos:station:TCOON:524:1,2015-03-01T10:06:00Z,29.8672,-93.9310,0.0,2.3,91.0,3.2,'11111222,11111222,11111222' 
TCOON,ioos:station:TCOON:524:1,2015-03-01T10:12:00Z,29.8672,-93.9310,0.0,2.3,91.0,3.2,'1111122,1111122,1111122' 
TCOON,ioos:station:TCOON:524:1,2015-03-01T10:18:00Z,29.8672,-93.9310,0.0,2.9,94.0,4.3,'11111222,11111222,11111222' 
TCOON,ioos:station:TCOON:524:1,2015-03-01T10:24:00Z,29.8672,-93.9310,0.0,2.5,89.0,3.9,'11111222,11111222,11111222' 
TCOON,ioos:station:TCOON:524:1,2015-03-01T10:30:00Z,29.8672,-93.9310,0.0,2.2,88.0,4.0,'11111222,11111222,11111222' 
TCOON,ioos:station:TCOON:524:1,2015-03-01T10:36:00Z,29.8672,-93.9310,0.0,2.6,84.0,4.0,'11111222,11111222,11111222' 
TCOON,ioos:station:TCOON:524:1,2015-03-01T10:42:00Z,29.8672,-93.9310,0.0,3.2,87.0,4.3,'11111222,11111222,11111222' 
TCOON,ioos:station:TCOON:524:1,2015-03-01T10:48:00Z,29.8672,-93.9310,0.0,3.5,86.0,5.3,'11111222,11111222,11111222' 
TCOON,ioos:station:TCOON:524:1,2015-03-01T10:54:00Z,29.8672,-93.9310,0.0,3.1,84.0,4.8,'11111222,11111222,11111222' 
TCOON,ioos:station:TCOON:524:1,2015-03-01T11:00:00Z,29.8672,-93.9310,0.0,3.1,81.0,4.4,'11111222,11111222,11111222' 
TCOON,ioos:station:TCOON:524:1,2015-03-01T11:06:00Z,29.8672,-93.9310,0.0,3.6,84.0,4.8,'11111222,11111222,11111222' 
TCOON,ioos:station:TCOON:524:1,2015-03-01T11:12:00Z,29.8672,-93.9310,0.0,3.6,84.0,4.8,'1111122,1111122,1111122' 
TCOON,ioos:station:TCOON:524:1,2015-03-01T11:18:00Z,29.8672,-93.9310,0.0,2.8,89.0,4.0,'11111222,11111222,11111222' 
TCOON,ioos:station:TCOON:524:1,2015-03-01T11:24:00Z,29.8672,-93.9310,0.0,2.9,77.0,4.4,'11111222,11111222,11111222' 
TCOON,ioos:station:TCOON:524:1,2015-03-01T11:30:00Z,29.8672,-93.9310,0.0,2.7,95.0,4.8,'11111222,11111222,11111222' 
TCOON,ioos:station:TCOON:524:1,2015-03-01T11:36:00Z,29.8672,-93.9310,0.0,2.5,79.0,3.8,'11111222,11111222,11111222' 
TCOON,ioos:station:TCOON:524:1,2015-03-01T11:42:00Z,29.8672,-93.9310,0.0,2.6,91.0,4.2,'11111222,11111222,11111222' 
TCOON,ioos:station:TCOON:524:1,2015-03-01T11:48:00Z,29.8672,-93.9310,0.0,2.6,84.0,4.4,'11111222,11111222,11111222' 
TCOON,ioos:station:TCOON:524:1,2015-03-01T11:54:00Z,29.8672,-93.9310,0.0,2.4,83.0,3.9,'11111222,11111222,11111222' 
TCOON,ioos:station:TCOON:524:1,2015-03-01T12:00:00Z,29.8672,-93.9310,0.0,1.9,81.0,3.5,'11111222,11111222,11111222' 
TCOON,ioos:station:TCOON:524:1,2015-03-01T12:06:00Z,29.8672,-93.9310,0.0,2.3,77.0,3.6,'11111222,11111222,11111222' 
TCOON,ioos:station:TCOON:524:1,2015-03-01T12:12:00Z,29.8672,-93.9310,0.0,2.3,77.0,3.6,'1111122,1111122,1111122' 
TCOON,ioos:station:TCOON:524:1,2015-03-01T12:18:00Z,29.8672,-93.9310,0.0,2.3,83.0,3.6,'11111222,11111222,11111222' 
TCOON,ioos:station:TCOON:524:1,2015-03-01T12:24:00Z,29.8672,-93.9310,0.0,2.3,84.0,3.3,'11111222,11111222,11111222' 
TCOON,ioos:station:TCOON:524:1,2015-03-01T12:30:00Z,29.8672,-93.9310,0.0,2.0,78.0,3.1,'11111222,11111222,11111222' 
TCOON,ioos:station:TCOON:524:1,2015-03-01T12:36:00Z,29.8672,-93.9310,0.0,2.2,69.0,3.0,'11111222,11111222,11111222' 
TCOON,ioos:station:TCOON:524:1,2015-03-01T12:42:00Z,29.8672,-93.9310,0.0,1.6,78.0,2.7,'11111222,11111222,11111222' 
TCOON,ioos:station:TCOON:524:1,2015-03-01T12:48:00Z,29.8672,-93.9310,0.0,2.0,79.0,3.1,'11111222,11111222,11111222' 
TCOON,ioos:station:TCOON:524:1,2015-03-01T12:54:00Z,29.8672,-93.9310,0.0,1.5,77.0,2.6,'11111222,11111222,11111222' 
TCOON,ioos:station:TCOON:524:1,2015-03-01T13:00:00Z,29.8672,-93.9310,0.0,1.0,65.0,2.6,'11111222,11111222,11111222' 
TCOON,ioos:station:TCOON:524:1,2015-03-01T13:12:00Z,29.8672,-93.9310,0.0,1.4,97.0,2.2,'1111122,1111122,1111122' 
TCOON,ioos:station:TCOON:524:1,2015-03-01T13:18:00Z,29.8672,-93.9310,0.0,2.0,100.0,3.1,'11111222,11111222,11111222' 
TCOON,ioos:station:TCOON:524:1,2015-03-01T13:24:00Z,29.8672,-93.9310,0.0,2.7,94.0,3.9,'11111222,11111222,11111222' 
TCOON,ioos:station:TCOON:524:1,2015-03-01T13:30:00Z,29.8672,-93.9310,0.0,2.4,98.0,3.7,'11111222,11111222,11111222' 
TCOON,ioos:station:TCOON:524:1,2015-03-01T13:36:00Z,29.8672,-93.9310,0.0,1.8,88.0,2.6,'11111222,11111222,11111222' 
TCOON,ioos:station:TCOON:524:1,2015-03-01T13:42:00Z,29.8672,-93.9310,0.0,1.7,100.0,3.8,'11111222,11111222,11111222' 
TCOON,ioos:station:TCOON:524:1,2015-03-01T13:48:00Z,29.8672,-93.9310,0.0,2.0,114.0,3.2,'11111222,11111222,11111222' 
TCOON,ioos:station:TCOON:524:1,2015-03-01T13:54:00Z,29.8672,-93.9310,0.0,2.7,108.0,4.4,'11111222,11111222,11111222' 
TCOON,ioos:station:TCOON:524:1,2015-03-01T14:00:00Z,29.8672,-93.9310,0.0,2.5,113.0,4.1,'11111222,11111222,11111222' 
TCOON,ioos:station:TCOON:524:1,2015-03-01T14:06:00Z,29.8672,-93.9310,0.0,3.0,107.0,4.5,'11111222,11111222,11111222' 
TCOON,ioos:station:TCOON:524:1,2015-03-01T14:12:00Z,29.8672,-93.9310,0.0,3.0,107.0,4.5,'1111122,1111122,1111122' 
TCOON,ioos:station:TCOON:524:1,2015-03-01T14:18:00Z,29.8672,-93.9310,0.0,3.0,108.0,4.4,'11111222,11111222,11111222' 
TCOON,ioos:station:TCOON:524:1,2015-03-01T14:36:00Z,29.8672,-93.9310,0.0,3.0,113.0,4.6,'11111222,11111222,11111222' 
TCOON,ioos:station:TCOON:524:1,2015-03-01T14:42:00Z,29.8672,-93.9310,0.0,3.2,106.0,5.2,'11111222,11111222,11111222' 
TCOON,ioos:station:TCOON:524:1,2015-03-01T14:48:00Z,29.8672,-93.9310,0.0,3.0,105.0,4.5,'11111222,11111222,11111222' 
TCOON,ioos:station:TCOON:524:1,2015-03-01T14:54:00Z,29.8672,-93.9310,0.0,3.4,110.0,4.9,'11111222,11111222,11111222' 
TCOON,ioos:station:TCOON:524:1,2015-03-01T15:00:00Z,29.8672,-93.9310,0.0,2.9,119.0,3.9,'11111222,11111222,11111222' 
TCOON,ioos:station:TCOON:524:1,2015-03-01T15:06:00Z,29.8672,-93.9310,0.0,2.3,126.0,3.6,'11111222,11111222,11111222' 
TCOON,ioos:station:TCOON:524:1,2015-03-01T15:12:00Z,29.8672,-93.9310,0.0,2.2,137.0,4.6,'11111222,11111222,11111222' 
TCOON,ioos:station:TCOON:524:1,2015-03-01T15:18:00Z,29.8672,-93.9310,0.0,2.2,137.0,4.6,'1111122,1111122,1111122' 
TCOON,ioos:station:TCOON:524:1,2015-03-01T15:24:00Z,29.8672,-93.9310,0.0,2.1,138.0,3.3,'11111222,11111222,11111222' 
TCOON,ioos:station:TCOON:524:1,2015-03-01T15:30:00Z,29.8672,-93.9310,0.0,2.9,143.0,4.2,'11111222,11111222,11111222' 
TCOON,ioos:station:TCOON:524:1,2015-03-01T15:36:00Z,29.8672,-93.9310,0.0,3.7,143.0,5.2,'11111222,11111222,11111222' 
TCOON,ioos:station:TCOON:524:1,2015-03-01T15:42:00Z,29.8672,-93.9310,0.0,3.7,140.0,5.4,'11111222,11111222,11111222' 
TCOON,ioos:station:TCOON:524:1,2015-03-01T15:48:00Z,29.8672,-93.9310,0.0,2.4,137.0,5.4,'11111222,11111222,11111222' 
TCOON,ioos:station:TCOON:524:1,2015-03-01T15:54:00Z,29.8672,-93.9310,0.0,2.1,136.0,4.2,'11111222,11111222,11111222' 
TCOON,ioos:station:TCOON:524:1,2015-03-01T16:00:00Z,29.8672,-93.9310,0.0,2.6,132.0,4.6,'11111222,11111222,11111222' 
TCOON,ioos:station:TCOON:524:1,2015-03-01T16:06:00Z,29.8672,-93.9310,0.0,2.2,134.0,3.5,'11111222,11111222,11111222' 
TCOON,ioos:station:TCOON:524:1,2015-03-01T16:12:00Z,29.8672,-93.9310,0.0,2.2,134.0,3.5,'1111122,1111122,1111122' 
TCOON,ioos:station:TCOON:524:1,2015-03-01T16:18:00Z,29.8672,-93.9310,0.0,1.9,126.0,3.0,'11111222,11111222,11111222' 
TCOON,ioos:station:TCOON:524:1,2015-03-01T16:24:00Z,29.8672,-93.9310,0.0,1.6,124.0,3.2,'11111222,11111222,11111222' 
TCOON,ioos:station:TCOON:524:1,2015-03-01T16:30:00Z,29.8672,-93.9310,0.0,1.4,108.0,2.5,'11111222,11111222,11111222' 
TCOON,ioos:station:TCOON:524:1,2015-03-01T16:36:00Z,29.8672,-93.9310,0.0,1.3,112.0,3.0,'11111222,11111222,11111222' 
TCOON,ioos:station:TCOON:524:1,2015-03-01T16:42:00Z,29.8672,-93.9310,0.0,1.1,145.0,2.7,'11111222,11111222,11111222' 
TCOON,ioos:station:TCOON:524:1,2015-03-01T16:48:00Z,29.8672,-93.9310,0.0,1.3,139.0,2.8,'11111222,11111222,11111222' 
TCOON,ioos:station:TCOON:524:1,2015-03-01T16:54:00Z,29.8672,-93.9310,0.0,1.8,131.0,2.3,'11111222,11111222,11111222' 
TCOON,ioos:station:TCOON:524:1,2015-03-01T17:00:00Z,29.8672,-93.9310,0.0,2.4,117.0,3.3,'11111222,11111222,11111222' 
TCOON,ioos:station:TCOON:524:1,2015-03-01T17:06:00Z,29.8672,-93.9310,0.0,2.3,137.0,4.1,'11111222,11111222,11111222' 
TCOON,ioos:station:TCOON:524:1,2015-03-01T17:12:00Z,29.8672,-93.9310,0.0,2.3,137.0,4.1,'1111122,1111122,1111122' 
TCOON,ioos:station:TCOON:524:1,2015-03-01T17:18:00Z,29.8672,-93.9310,0.0,2.0,140.0,3.5,'11111222,11111222,11111222' 
TCOON,ioos:station:TCOON:524:1,2015-03-01T17:24:00Z,29.8672,-93.9310,0.0,1.8,136.0,3.2,'11111222,11111222,11111222' 
TCOON,ioos:station:TCOON:524:1,2015-03-01T17:30:00Z,29.8672,-93.9310,0.0,1.9,132.0,2.7,'11111222,11111222,11111222' 
TCOON,ioos:station:TCOON:524:1,2015-03-01T17:36:00Z,29.8672,-93.9310,0.0,1.7,144.0,3.4,'11111222,11111222,11111222' 
TCOON,ioos:station:TCOON:524:1,2015-03-01T17:42:00Z,29.8672,-93.9310,0.0,1.3,142.0,2.7,'11111222,11111222,11111222' 
TCOON,ioos:station:TCOON:524:1,2015-03-01T17:48:00Z,29.8672,-93.9310,0.0,2.6,143.0,3.9,'11111222,11111222,11111222' 
TCOON,ioos:station:TCOON:524:1,2015-03-01T17:54:00Z,29.8672,-93.9310,0.0,3.3,150.0,4.7,'11111222,11111222,11111222' 
TCOON,ioos:station:TCOON:524:1,2015-03-01T18:00:00Z,29.8672,-93.9310,0.0,2.0,181.0,3.9,'11111222,11111222,11111222' 
TCOON,ioos:station:TCOON:524:1,2015-03-01T18:06:00Z,29.8672,-93.9310,0.0,2.1,170.0,4.5,'11111222,11111222,11111222' 
TCOON,ioos:station:TCOON:524:1,2015-03-01T18:12:00Z,29.8672,-93.9310,0.0,2.1,170.0,4.5,'1111122,1111122,1111122' 
TCOON,ioos:station:TCOON:524:1,2015-03-01T18:18:00Z,29.8672,-93.9310,0.0,1.8,165.0,3.2,'11111222,11111222,11111222' 
TCOON,ioos:station:TCOON:524:1,2015-03-01T18:24:00Z,29.8672,-93.9310,0.0,2.3,162.0,3.2,'11111222,11111222,11111222' 
TCOON,ioos:station:TCOON:524:1,2015-03-01T18:30:00Z,29.8672,-93.9310,0.0,2.1,160.0,3.6,'11111222,11111222,11111222' 
TCOON,ioos:station:TCOON:524:1,2015-03-01T18:36:00Z,29.8672,-93.9310,0.0,2.0,166.0,3.5,'11111222,11111222,11111222' 
TCOON,ioos:station:TCOON:524:1,2015-03-01T18:42:00Z,29.8672,-93.9310,0.0,1.8,170.0,3.3,'11111222,11111222,11111222' 
TCOON,ioos:station:TCOON:524:1,2015-03-01T18:48:00Z,29.8672,-93.9310,0.0,1.9,172.0,3.2,'11111222,11111222,11111222' 
TCOON,ioos:station:TCOON:524:1,2015-03-01T18:54:00Z,29.8672,-93.9310,0.0,1.9,171.0,3.2,'11111222,11111222,11111222' 
TCOON,ioos:station:TCOON:524:1,2015-03-01T19:00:00Z,29.8672,-93.9310,0.0,2.1,175.0,2.9,'11111222,11111222,11111222' 
TCOON,ioos:station:TCOON:524:1,2015-03-01T19:06:00Z,29.8672,-93.9310,0.0,1.4,183.0,3.6,'11111222,11111222,11111222' 
TCOON,ioos:station:TCOON:524:1,2015-03-01T19:12:00Z,29.8672,-93.9310,0.0,2.3,172.0,3.6,'11111222,11111222,11111222' 
TCOON,ioos:station:TCOON:524:1,2015-03-01T19:18:00Z,29.8672,-93.9310,0.0,2.3,172.0,3.6,'1111122,1111122,1111122' 
TCOON,ioos:station:TCOON:524:1,2015-03-01T19:24:00Z,29.8672,-93.9310,0.0,1.8,172.0,2.8,'11111222,11111222,11111222' 
TCOON,ioos:station:TCOON:524:1,2015-03-01T19:30:00Z,29.8672,-93.9310,0.0,1.7,162.0,4.0,'11111222,11111222,11111222' 
TCOON,ioos:station:TCOON:524:1,2015-03-01T19:36:00Z,29.8672,-93.9310,0.0,2.8,161.0,4.1,'11111222,11111222,11111222' 
TCOON,ioos:station:TCOON:524:1,2015-03-01T19:42:00Z,29.8672,-93.9310,0.0,3.3,157.0,4.5,'11111222,11111222,11111222' 
TCOON,ioos:station:TCOON:524:1,2015-03-01T19:48:00Z,29.8672,-93.9310,0.0,3.4,165.0,5.0,'11111222,11111222,11111222' 
TCOON,ioos:station:TCOON:524:1,2015-03-01T19:54:00Z,29.8672,-93.9310,0.0,3.0,169.0,4.3,'11111222,11111222,11111222' 
TCOON,ioos:station:TCOON:524:1,2015-03-01T20:00:00Z,29.8672,-93.9310,0.0,3.4,170.0,5.0,'11111222,11111222,11111222' 
TCOON,ioos:station:TCOON:524:1,2015-03-01T20:06:00Z,29.8672,-93.9310,0.0,3.4,178.0,4.7,'11111222,11111222,11111222' 
TCOON,ioos:station:TCOON:524:1,2015-03-01T20:12:00Z,29.8672,-93.9310,0.0,3.4,178.0,4.7,'1111122,1111122,1111122' 
TCOON,ioos:station:TCOON:524:1,2015-03-01T20:18:00Z,29.8672,-93.9310,0.0,2.6,158.0,4.2,'11111222,11111222,11111222' 
TCOON,ioos:station:TCOON:524:1,2015-03-01T20:24:00Z,29.8672,-93.9310,0.0,2.2,159.0,3.7,'11111222,11111222,11111222' 
TCOON,ioos:station:TCOON:524:1,2015-03-01T20:30:00Z,29.8672,-93.9310,0.0,2.3,163.0,3.3,'11111222,11111222,11111222' 
TCOON,ioos:station:TCOON:524:1,2015-03-01T20:36:00Z,29.8672,-93.9310,0.0,2.3,160.0,3.6,'11111222,11111222,11111222' 
TCOON,ioos:station:TCOON:524:1,2015-03-01T20:42:00Z,29.8672,-93.9310,0.0,1.7,170.0,3.7,'11111222,11111222,11111222' 
TCOON,ioos:station:TCOON:524:1,2015-03-01T20:48:00Z,29.8672,-93.9310,0.0,1.9,175.0,2.9,'11111222,11111222,11111222' 
TCOON,ioos:station:TCOON:524:1,2015-03-01T20:54:00Z,29.8672,-93.9310,0.0,2.0,174.0,3.0,'11111222,11111222,11111222' 
TCOON,ioos:station:TCOON:524:1,2015-03-01T21:00:00Z,29.8672,-93.9310,0.0,1.4,162.0,3.2,'11111222,11111222,11111222' 
TCOON,ioos:station:TCOON:524:1,2015-03-01T21:06:00Z,29.8672,-93.9310,0.0,2.1,161.0,3.1,'11111222,11111222,11111222' 
TCOON,ioos:station:TCOON:524:1,2015-03-01T21:12:00Z,29.8672,-93.9310,0.0,2.1,161.0,3.1,'1111122,1111122,1111122' 
TCOON,ioos:station:TCOON:524:1,2015-03-01T21:18:00Z,29.8672,-93.9310,0.0,2.2,166.0,3.1,'11111222,11111222,11111222' 
TCOON,ioos:station:TCOON:524:1,2015-03-01T21:24:00Z,29.8672,-93.9310,0.0,1.8,165.0,3.0,'11111222,11111222,11111222' 
TCOON,ioos:station:TCOON:524:1,2015-03-01T21:30:00Z,29.8672,-93.9310,0.0,1.6,160.0,2.2,'11111222,11111222,11111222' 